EN

Hourly Weather Turdakovo

Today, 23 October, Friday

Time Temperature Precipitation Wind Pressure Humidity
00:00 +1°C° 0 mm 2 mps 746 mmHg 86%
01:00 +1°C° 0.1 mm 2 mps 746 mmHg 89%
02:00 0°C° 0.1 mm 3 mps 746 mmHg 93%
03:00 +1°C° 0.1 mm 3 mps 745 mmHg 97%
04:00 0°C° 0.3 mm 4 mps 744 mmHg 96%
05:00 0°C° 0.3 mm 4 mps 744 mmHg 96%
06:00 +1°C° 0.3 mm 5 mps 743 mmHg 96%
07:00 +1°C° 0.4 mm 5 mps 742 mmHg 95%
08:00 +1°C° 0.4 mm 5 mps 742 mmHg 94%
09:00 +2°C° 0.4 mm 5 mps 741 mmHg 93%
10:00 +2°C° 0.5 mm 5 mps 741 mmHg 93%
11:00 +2°C° 0.5 mm 5 mps 740 mmHg 93%
12:00 +4°C° 0.5 mm 4 mps 740 mmHg 92%
13:00 +4°C° 0.4 mm 4 mps 740 mmHg 93%
14:00 +5°C° 0.4 mm 4 mps 739 mmHg 95%
15:00 +5°C° 0.4 mm 4 mps 739 mmHg 96%
16:00 +6°C° 0.2 mm 4 mps 739 mmHg 94%
17:00 +7°C° 0.2 mm 5 mps 739 mmHg 93%
18:00 +8°C° 0.2 mm 5 mps 739 mmHg 91%
19:00 +8°C° 0 mm 5 mps 739 mmHg 91%
20:00 +8°C° 0 mm 5 mps 739 mmHg 91%
21:00 +8°C° 0 mm 5 mps 739 mmHg 92%
22:00 +8°C° 0 mm 5 mps 738 mmHg 92%
23:00 +7°C° 0 mm 5 mps 738 mmHg 93%

Tomorrow, 24 October, Saturday

Time Temperature Precipitation Wind Pressure Humidity
00:00 +7°C° 0 mm 5 mps 738 mmHg 93%
01:00 +7°C° 0.9 mm 5 mps 737 mmHg 94%
02:00 +7°C° 0.9 mm 5 mps 737 mmHg 95%
03:00 +7°C° 0.9 mm 5 mps 736 mmHg 96%
04:00 +8°C° 0.7 mm 5 mps 736 mmHg 94%
05:00 +8°C° 0.7 mm 6 mps 735 mmHg 93%
06:00 +9°C° 0.7 mm 6 mps 735 mmHg 92%
07:00 +9°C° 0.1 mm 6 mps 735 mmHg 89%
08:00 +9°C° 0.1 mm 7 mps 736 mmHg 87%
09:00 +9°C° 0.1 mm 7 mps 736 mmHg 85%
10:00 +10°C° 0 mm 7 mps 737 mmHg 82%
11:00 +10°C° 0 mm 6 mps 737 mmHg 79%
12:00 +10°C° 0 mm 6 mps 738 mmHg 76%
13:00 +9°C° 0 mm 6 mps 738 mmHg 76%
14:00 +9°C° 0 mm 5 mps 739 mmHg 77%
15:00 +9°C° 0 mm 5 mps 739 mmHg 78%
16:00 +10°C° 0 mm 4 mps 740 mmHg 78%
17:00 +8°C° 0 mm 4 mps 740 mmHg 79%
18:00 +9°C° 0 mm 3 mps 741 mmHg 80%
19:00 +9°C° 0 mm 3 mps 741 mmHg 80%
20:00 +9°C° 0 mm 2 mps 741 mmHg 80%
21:00 +8°C° 0 mm 2 mps 742 mmHg 80%
22:00 +8°C° 0 mm 2 mps 742 mmHg 82%
23:00 +7°C° 0 mm 2 mps 742 mmHg 84%

Day after tomorrow, 25 October, Sunday

Time Temperature Precipitation Wind Pressure Humidity
00:00 +7°C° 0 mm 2 mps 742 mmHg 86%
01:00 +6°C° 0 mm 2 mps 742 mmHg 87%
02:00 +7°C° 0 mm 1 mps 742 mmHg 87%
03:00 +7°C° 0 mm 1 mps 742 mmHg 87%
04:00 +7°C° 0 mm 1 mps 742 mmHg 85%
05:00 +6°C° 0 mm 2 mps 742 mmHg 84%
06:00 +7°C° 0 mm 2 mps 742 mmHg 83%
07:00 +7°C° 0 mm 2 mps 742 mmHg 82%
08:00 +7°C° 0 mm 2 mps 741 mmHg 80%
09:00 +8°C° 0 mm 2 mps 741 mmHg 79%
10:00 +9°C° 0.2 mm 1 mps 741 mmHg 81%
11:00 +9°C° 0.2 mm 1 mps 741 mmHg 82%
12:00 +8°C° 0.2 mm 0 mps 740 mmHg 84%
13:00 +8°C° 0.5 mm 1 mps 740 mmHg 87%
14:00 +8°C° 0.5 mm 1 mps 740 mmHg 90%
15:00 +8°C° 0.5 mm 1 mps 740 mmHg 93%
16:00 +6°C° 0.6 mm 2 mps 740 mmHg 93%
17:00 +6°C° 0.6 mm 2 mps 740 mmHg 93%
18:00 +5°C° 0.6 mm 3 mps 740 mmHg 93%
19:00 +5°C° 0 mm 3 mps 741 mmHg 92%
20:00 +5°C° 0 mm 3 mps 741 mmHg 92%
21:00 +5°C° 0 mm 3 mps 742 mmHg 92%
22:00 +4°C° 0 mm 3 mps 742 mmHg 92%
23:00 +4°C° 0 mm 3 mps 743 mmHg 92%

, 26 October, Monday

Time Temperature Precipitation Wind Pressure Humidity
00:00 +4°C° 0 mm 3 mps 743 mmHg 93%
01:00 +3°C° 0 mm 3 mps 743 mmHg 92%
02:00 +3°C° 0 mm 3 mps 744 mmHg 91%
03:00 +3°C° 0 mm 3 mps 744 mmHg 90%
04:00 +3°C° 0 mm 3 mps 745 mmHg 90%
05:00 +3°C° 0 mm 3 mps 745 mmHg 89%
06:00 +3°C° 0 mm 3 mps 746 mmHg 89%
07:00 +3°C° 0 mm 3 mps 746 mmHg 85%
08:00 +3°C° 0 mm 4 mps 747 mmHg 81%
09:00 +3°C° 0 mm 4 mps 747 mmHg 77%
10:00 +2°C° 0 mm 5 mps 747 mmHg 75%
11:00 +3°C° 0 mm 5 mps 748 mmHg 73%
12:00 +3°C° 0 mm 6 mps 748 mmHg 71%
13:00 +3°C° 0 mm 6 mps 749 mmHg 71%
14:00 +3°C° 0 mm 6 mps 749 mmHg 70%
15:00 +3°C° 0 mm 6 mps 749 mmHg 69%
16:00 +2°C° 0 mm 6 mps 750 mmHg 71%
17:00 +1°C° 0 mm 5 mps 751 mmHg 73%
18:00 0°C° 0 mm 5 mps 751 mmHg 75%
19:00 0°C° 0 mm 4 mps 752 mmHg 77%
20:00 0°C° 0 mm 3 mps 752 mmHg 79%
21:00 -1°C° 0 mm 2 mps 753 mmHg 80%
22:00 -1°C° 0 mm 2 mps 753 mmHg 81%
23:00 -2°C° 0 mm 2 mps 754 mmHg 82%

26 October, Monday

Time Temperature Precipitation Wind Pressure Humidity
00:00 +4°C° 0 mm 3 mps 743 mmHg 93%
01:00 +3°C° 0 mm 3 mps 743 mmHg 92%
02:00 +3°C° 0 mm 3 mps 744 mmHg 91%
03:00 +3°C° 0 mm 3 mps 744 mmHg 90%
04:00 +3°C° 0 mm 3 mps 745 mmHg 90%
05:00 +3°C° 0 mm 3 mps 745 mmHg 89%
06:00 +3°C° 0 mm 3 mps 746 mmHg 89%
07:00 +3°C° 0 mm 3 mps 746 mmHg 85%
08:00 +3°C° 0 mm 4 mps 747 mmHg 81%
09:00 +3°C° 0 mm 4 mps 747 mmHg 77%
10:00 +2°C° 0 mm 5 mps 747 mmHg 75%
11:00 +3°C° 0 mm 5 mps 748 mmHg 73%
12:00 +3°C° 0 mm 6 mps 748 mmHg 71%
13:00 +3°C° 0 mm 6 mps 749 mmHg 71%
14:00 +3°C° 0 mm 6 mps 749 mmHg 70%
15:00 +3°C° 0 mm 6 mps 749 mmHg 69%
16:00 +2°C° 0 mm 6 mps 750 mmHg 71%
17:00 +1°C° 0 mm 5 mps 751 mmHg 73%
18:00 0°C° 0 mm 5 mps 751 mmHg 75%
19:00 0°C° 0 mm 4 mps 752 mmHg 77%
20:00 0°C° 0 mm 3 mps 752 mmHg 79%
21:00 -1°C° 0 mm 2 mps 753 mmHg 80%
22:00 -1°C° 0 mm 2 mps 753 mmHg 81%
23:00 -2°C° 0 mm 2 mps 754 mmHg 82%

27 October, Tuesday

Time Temperature Precipitation Wind Pressure Humidity
00:00 -2°C° 0 mm 2 mps 754 mmHg 83%
01:00 -2°C° 0 mm 2 mps 754 mmHg 83%
02:00 0°C° 0 mm 1 mps 755 mmHg 84%
03:00 0°C° 0 mm 1 mps 755 mmHg 84%
04:00 0°C° 0 mm 1 mps 755 mmHg 84%
05:00 0°C° 0 mm 1 mps 756 mmHg 83%
06:00 0°C° 0 mm 1 mps 756 mmHg 83%
07:00 0°C° 0 mm 1 mps 756 mmHg 79%
08:00 +1°C° 0 mm 1 mps 757 mmHg 75%
09:00 +2°C° 0 mm 1 mps 757 mmHg 71%
10:00 +3°C° 0 mm 1 mps 757 mmHg 66%
11:00 +3°C° 0 mm 1 mps 757 mmHg 60%
12:00 +4°C° 0 mm 1 mps 757 mmHg 55%
13:00 +5°C° 0 mm 1 mps 757 mmHg 56%
14:00 +5°C° 0 mm 1 mps 757 mmHg 57%
15:00 +5°C° 0 mm 1 mps 757 mmHg 58%
16:00 +4°C° 0 mm 1 mps 757 mmHg 62%
17:00 +3°C° 0 mm 1 mps 757 mmHg 65%
18:00 +2°C° 0 mm 1 mps 757 mmHg 68%
19:00 +2°C° 0 mm 1 mps 757 mmHg 69%
20:00 +1°C° 0 mm 1 mps 757 mmHg 69%
21:00 -1°C° 0 mm 2 mps 757 mmHg 70%
22:00 -1°C° 0 mm 2 mps 757 mmHg 70%
23:00 -1°C° 0 mm 2 mps 757 mmHg 70%

28 October, Wednesday

Time Temperature Precipitation Wind Pressure Humidity
00:00 -1°C° 0 mm 2 mps 757 mmHg 70%
01:00 -1°C° 0 mm 2 mps 757 mmHg 69%
02:00 -1°C° 0 mm 2 mps 756 mmHg 69%
03:00 -1°C° 0 mm 2 mps 756 mmHg 69%
04:00 -1°C° 0 mm 2 mps 756 mmHg 69%
05:00 -1°C° 0 mm 3 mps 756 mmHg 69%
06:00 -1°C° 0 mm 3 mps 756 mmHg 69%
07:00 -1°C° 0 mm 3 mps 756 mmHg 66%
08:00 0°C° 0 mm 3 mps 756 mmHg 62%
09:00 0°C° 0 mm 4 mps 756 mmHg 59%
10:00 +1°C° 0 mm 4 mps 755 mmHg 57%
11:00 +3°C° 0 mm 4 mps 755 mmHg 56%
12:00 +4°C° 0 mm 4 mps 755 mmHg 54%
13:00 +4°C° 0 mm 4 mps 755 mmHg 55%
14:00 +4°C° 0 mm 4 mps 755 mmHg 56%
15:00 +4°C° 0 mm 4 mps 754 mmHg 57%
16:00 +3°C° 0 mm 4 mps 754 mmHg 60%
17:00 +1°C° 0 mm 4 mps 754 mmHg 63%
18:00 0°C° 0 mm 4 mps 754 mmHg 67%
19:00 0°C° 0 mm 4 mps 754 mmHg 66%
20:00 0°C° 0 mm 4 mps 754 mmHg 65%
21:00 +1°C° 0 mm 4 mps 754 mmHg 65%
22:00 0°C° 0 mm 4 mps 753 mmHg 65%
23:00 0°C° 0 mm 4 mps 753 mmHg 66%
Show more

We Need Your Consent

Meteoprog and our Service Providers may store and access personal data such as cookies, device identifiers or other similar technologies on your device and process such data to personalise content and ads, as well as provide social media features and to analyse the traffic.

  • Store and/or access information on your device

    Cookies, device identifiers or other information can be stored or accessed on your device for the purposes indicated above.

  • Personalised ads and content, ad and content measurement, audience insights, and products development

    Ads and content can be personalised based on a profile. More data can be added to better personalise ads and content. Ad and content performance can be measured. Insights about the audience who saw the ads and content can be derived. Such data can be used to develop or improve user’s experience, systems and software.

By clicking ‘I Agree’ you will allow the use of indicated cookies, device identifiers, web beacons or other similar technologies. Your settings can be changed in the browser on your device.

For certain purposes, legitimate interests may be relied on, rather than consent. You can read more about this in our Privacy and Cookie Policy.